Preview of NWS' New Version of Forecast
This preview is not operational and should not be used for support decisions.
Latest weather observations around

Bedford, Hanscom Field (KBED)

Using English Units (Switch to International System of Units)
Date/ Time (EST) Wind (mph) Vis. (mi) Weather Sky Cond. Temp (°F) Rel. Humidity Wind Chill (°F) Heat Index (°F) Pressure Precip. (in)
Air Dwpt 6 hour Altimeter (inHg) Sea level (inHg) 1 hr 3 hr 6 hr
Max Min
Feb 19 09:56 NNW 13 10 Partly Cloudy SCT200 22 4     45% 10   30.46 30.51      
Feb 19 08:56 NNW 16 10 Clear CLR 19 3     49% 5   30.45 30.5      
Feb 19 07:56 W 8 10 Clear CLR 16 3     56% 5   30.44 30.49      
Feb 19 06:56 W 8 10 Clear   14 1     56% 3   30.39 30.45      
Feb 19 05:56 W 6 10 Clear CLR 13 1     58% 4   30.37 30.42      
Feb 19 04:56 W 7 10 Clear CLR 14 2     58% 4   30.35 30.4      
Feb 19 03:56 W 8 10 Clear CLR 15 2     55% 4   30.33 30.38      
Feb 19 02:56 W 8 10 Clear CLR 16 3     56% 5   30.31 30.36      
Feb 19 01:56 WNW 10 10 Clear CLR 17 3     53% 5   30.3 30.35      
Feb 19 00:56 WNW 8 10 Clear CLR 17 1     49% 7   30.26 30.31      
Feb 18 23:56 NNW 17 10 Clear CLR 19 1     45% 4   30.23 30.27      
Feb 18 22:56 NW 9 10 Clear CLR 20 5     52% 9   30.2 30.25      
Feb 18 21:56 WNW 8 10 Clear CLR 24 12     60% 15   30.15 30.19      
Feb 18 20:56 NW 15 10 Clear CLR 26 15     63% 14   30.1 30.14      
Feb 18 19:56 NW 9 10 Partly Cloudy SCT033 27 19     72% 18   30.05 30.1      
Feb 18 18:56 NW 5 10 Mostly Cloudy FEW026 BKN038 26 21     81% 20   30.01 30.06     0
Feb 18 17:56 NNW 6 10 Cloudy OVC037 28 22     78% 22   29.95 30 0    
Feb 18 16:56 NNW 6 4 Light Snow OVC033 28 22     78% 22   29.9 29.95 0    
Feb 18 16:36 NNW 6 5 Light Snow SCT013 OVC034 28 23     81% 22   29.89   0    
Feb 18 15:56 NNW 6 5 Light Snow BKN028 OVC036 28 21     75% 22   29.87 29.92 0 0  
Feb 18 15:35 N 7 5 Light Snow FEW012 OVC028 28 22     78% 21   29.86   0    
Feb 18 14:56 N 9 1.5 Light Snow VV008 28 23     81% 19   29.84 29.88 0    
Feb 18 14:48 N 9 1.5 Light Snow VV008 28 22     78% 19   29.83   0    
Feb 18 13:56 N 7 0.75 Light Snow VV008 29 23     78% 22   29.82 29.87 0    
Feb 18 12:56 N 9 0.75 Light Snow OVC008 29 24     82% 20   29.81 29.86 0   0
Feb 18 12:23 N 7 1.5 Light Snow and Fog/Mist SCT008 BKN012 OVC018 29 25     85% 22   29.8   0    
Feb 18 12:04 NNE 7 1.5 Light Snow BKN008 OVC012 30 25     81% 23   29.8   0    
Feb 18 11:56 6 2 Light Snow OVC008 30 25     81% 24   29.8 29.85 0    
Feb 18 10:56 N 10 2 Fog/Mist OVC006 30 26     85% 21   29.82 29.87 0    
Feb 18 10:33 NNE 8 2 Fog/Mist OVC009 30 26     85% 22   29.82   0    
Feb 18 10:11 NNE 5 2 Light Freezing Rain and Fog/Mist OVC009 30 26     85% 25   29.83   0    
Feb 18 09:56 NNE 6 2 Fog/Mist OVC007 30 26     85% 24   29.84 29.88   0  
Feb 18 09:54 NNE 7 2 Fog/Mist OVC007 30 27     86% 23   29.84        
Feb 18 08:56 N 6 7 Cloudy OVC007 30 25     81% 24   29.84 29.89      
Feb 18 08:31 NNE 6 7 Cloudy BKN008 OVC011 29 25     85% 23   29.84        
Feb 18 07:56 ENE 3 3 Fog/Mist OVC013 29 25     85% 25   29.87 29.92 0    
Feb 18 06:56 NNE 3 1 Light Snow and Fog/Mist VV012 29 26     89% 25   29.87 29.92 0   0
Feb 18 06:40 NNE 3 1 Light Snow and Fog/Mist VV013 29 25     85% 25   29.86   0    
Feb 18 06:20 NE 3 1.25 Light Snow and Fog/Mist OVC018 29 25     85% 25   29.86   0    
Feb 18 06:12 E 3 2 Light Snow and Fog/Mist FEW007 OVC022 28 25     88% 24   29.86   0    
Feb 18 05:56 NE 3 1.25 Light Snow and Fog/Mist FEW007 OVC022 28 25     88% 24   29.88 29.93 0    
Feb 18 05:53 ENE 3 1.5 Light Snow and Fog/Mist FEW007 OVC022 28 25     86% 25   29.87   0    
Feb 18 05:46 E 5 2 Light Snow and Fog/Mist FEW007 OVC026 28 25     88% 23   29.87   0    
Feb 18 05:39 E 3 2 Light Snow and Fog/Mist OVC030 28 25     88% 24   29.87   0    
Feb 18 04:56 NE 3 3 Light Snow and Fog/Mist OVC044 28 25     88% 24   29.9 29.95 0    
Feb 18 04:39 NNE 3 3 Clear   28 25     88% 24   29.91   0    
Feb 18 04:31 N 3 2.5 Clear   28 25     88% 24   29.92   0    
Feb 18 03:56 E 5 1.75 Clear   28 25     88% 23   29.92 29.96 0 0  
Feb 18 03:48 E 3 1.5 Clear   28 25     88% 24   29.93   0    
Feb 18 03:20 Calm 2.5 Light Snow and Fog/Mist FEW006 OVC029 28 25     88%     29.94   0    
Feb 18 03:04 ENE 3 2.5 Light Snow and Fog/Mist FEW006 OVC031 28 25     88% 24   29.94   0    
Feb 18 02:56 Calm 2.5 Light Snow and Fog/Mist FEW005 OVC029 28 25     88%     29.95 30 0    
Feb 18 02:40 Calm 2 Light Snow and Fog/Mist BKN017 OVC030 28 25     88%     29.96   0    
Feb 18 02:21 Calm 1 Light Snow and Fog/Mist VV011 28 25     88%     29.97   0    
Feb 18 01:56 Calm 0.75 Clear   28 25     88%     29.98 30.03 0    
Feb 18 01:05 Calm 0.5 Snow and Fog VV008 27 25     92%     29.99   0    
Feb 18 00:56 SSW 5 0.75 Light Snow and Fog/Mist VV010 28 24     85% 23   30 30.05 0   0
Feb 18 00:46 SSW 6 0.75 Light Snow and Fog/Mist VV014 28 24     85% 22   30.01   0    
Feb 18 00:39 SSW 7 1.25 Light Snow OVC017 28 23     81% 21   30.01   0    
Feb 18 00:31 S 6 2 Light Snow OVC023 28 23     81% 22   30   0    
Feb 18 00:20 S 6 2 Light Snow OVC033 28 22     78% 22   30   0    
Feb 17 23:56 S 5 10 Cloudy BKN060 OVC075 30 17     58% 25   30.01 30.06      
Feb 17 22:56 ESE 5 10 Cloudy OVC085 31 17     56% 26   30.01 30.06      
Feb 17 21:56 Calm 10 Cloudy OVC085 30 17     58%     30.02 30.07      
Feb 17 20:56 ESE 6 10 Mostly Cloudy BKN100 BKN120 30 15     53% 24   30.02 30.07      
Feb 17 19:56 ESE 6 10 Clear CLR 29 15     56% 23   30.04 30.09      
Feb 17 18:56 SE 6 10 Partly Cloudy SCT200 29 16     58% 23   30.06 30.11      
Feb 17 17:56 ESE 8 10 Mostly Cloudy SCT100 BKN160 31 13     47% 23   30.04 30.09      
Feb 17 16:56 Calm 10 Mostly Cloudy SCT100 BKN160 35 7     30%     30.03 30.07      
Feb 17 15:56 W 5 10 Mostly Cloudy SCT100 BKN160 36 7     29% 32   30.04 30.09      
Feb 17 14:56 5 10 Clear CLR 36 9     32% 32   30.07 30.12      
Feb 17 13:56 WNW 5 10 Mostly Cloudy SCT100 BKN160 33 6     32% 29   30.08 30.13      
Feb 17 12:56 3 10 Clear CLR 32 7     34% 29   30.07 30.12      
Feb 17 11:56 3 10 Clear CLR 31 7     36% 28   30.1 30.14      
Feb 17 10:56 NNW 8 10 Clear   30 8     39% 22   30.13 30.18      
Feb 17 09:56 NNW 13 10 Clear CLR 27 7     42% 16   30.13 30.18      
Feb 17 08:56 NW 8 10 Clear CLR 25 8     48% 16   30.13 30.18      
Feb 17 07:56 NW 10 10 Clear CLR 22 8     55% 11   30.11 30.16      
Feb 17 06:56 NW 5 10 Clear CLR 19 9     64% 12   30.09 30.14      
Feb 17 05:56 Calm 10 Clear CLR 21 8     57%     30.07 30.12      
Feb 17 04:56 WNW 3 10 Clear CLR 22 8     55% 17   30.05 30.09      
Feb 17 03:56 WNW 6 10 Clear CLR 21 9     59% 13   30.03 30.08      
Feb 17 02:56 NW 10 10 Clear CLR 24 9     52% 14   30.03 30.07      
Feb 17 01:56 NW 8 10 Clear CLR 24 9     52% 15   30.03 30.08      
Feb 17 00:56 NW 10 10 Clear   26 10     50% 16   30.01 30.05      
Feb 16 23:56 NNW 15 10 Clear CLR 28 11     48% 17   29.99 30.03      
Feb 16 22:56 NNW 9 10 Clear CLR 29 13     51% 20   29.96 30.01      
Feb 16 21:56 NW 9 10 Clear CLR 30 17     58% 22   29.94 29.99      
Feb 16 20:56 WNW 9 10 Clear CLR 31 17     56% 23   29.91 29.96      
Feb 16 19:56 WNW 7 10 Clear CLR 30 18     60% 23   29.9 29.94      
Feb 16 18:56 WNW 5 10 Clear CLR 34 17     50% 30   29.88 29.92      
Feb 16 17:56 NW 6 10 Clear CLR 35 19     52% 30   29.85 29.89      
Feb 16 16:56 NW 11 10 Clear CLR 38 19     46% 30   29.81 29.85      
Feb 16 15:56 WNW 15 10 Clear CLR 40 20     44% 32   29.79 29.83      
Feb 16 14:56 NW 13 10 Clear CLR 41 20     43% 34   29.76 29.8      
Feb 16 13:56 W 10 10 Clear CLR 42 20     41% 36   29.75 29.79      
Feb 16 12:56 WNW 11 10 Mostly Clear FEW045 40 20     44% 33   29.75 29.79      
Feb 16 11:56 WNW 8 10 Clear CLR 39 19     44% 33   29.76 29.8      
Feb 16 10:56 WNW 14 10 Partly Cloudy SCT140 39 20     46% 31   29.78 29.82      
May 14 11:56 7 10 Cloudy OVC027 62 51     67%     29.97 30.01      
May 14 05:56 Calm 10 Clear   50 47     89%     30 30.04      
May 13 01:34 NNW 5 8 Mostly Cloudy BKN006 46 45     96% 44   30.12        
May 12 16:56 NNW 5 3 Light Rain and Fog/Mist OVC005 48 47     96% 46   30.11 30.15 0 0  
Jun 11 22:56 SW 6 10 Clear CLR 78 61     56%   78 29.91 29.94      
Jun 11 12:56 WSW 8 10 Clear CLR 83 58     43%   83 29.94 29.97      
Jun 10 08:56 SW 6 10 Clear CLR 73 53     50%   72 29.95 29.98      
Jun 09 09:56 W 7 10 Partly Cloudy SCT150 70 44     39%     29.64 29.67      
Jun 09 03:56 Calm 10 Clear   55 47     74%     29.71 29.74      
Jun 08 11:56 5 10 Clear CLR 77 47     35%   76 30 30.03      
Jun 07 16:56 ESE 8 10 Mostly Clear FEW040 70 44     39%     29.94 29.98      
Jun 07 11:56 NE 9 10 Clear CLR 66 50     56%     29.95 29.99      
Jun 06 08:48 NE 11 2 Fog/Mist OVC004 49 47     93% 44   29.82   0    
Notice The following observation data may not be complete
Jun 06 08:03   1.75 Fog/Mist BKN010 OVC014          %         0    
Jun 06 05:56 NE 16 1.5 Fog/Mist OVC009 49 46     90% 43   29.8 29.84 0    
Notice The following observation data may not be complete
Jun 06 03:56   6 Light Rain and Fog/Mist OVC010          %         0    
Jun 05 14:56 ENE 10 1.25 Fog/Mist VV004 56 53     90%     29.85 29.88